Home   Weather   Vöcklabruck   Past weeks
Flag for Austria

Past Weather in Vöcklabruck, Upper Austria, Austria — Yesterday and Last 2 Weeks

Now
67 °F

Mild.


Feels Like: 67 °F
Forecast: 65 / 40 °F
Wind: 7 mph from East

Location: Kremsmuenster

Current Time: Sep 21, 2019 at 7:46:43 pm

Latest Report: Sep 21, 2019 at 6:00 pm


Visibility: N/A

Pressure: 30.06 "Hg

Humidity: 45%

Dew Point: 45 °F

Location of VöcklabruckLocation

Past Weather in Vöcklabruck — Graph

°F

Vöcklabruck Temperature Yesterday

Maximum temperature yesterday: 63 °F (at 5:00 pm)
Minimum temperature yesterday: 39 °F (at 6:00 am)
Average temperature yesterday: 51 °F

High & Low Weather Summary for the Past Weeks

 TemperatureHumidityPressure
High78 °F (Sep 16, 5:00 pm)94% (Sep 15, 8:00 am)30.48 "Hg (Sep 15, 8:00 am)
Low38 °F (Sep 21, 7:00 am)29% (Sep 20, 5:00 pm)29.89 "Hg (Sep 8, 6:00 pm)
Average58 °F71%30.20 "Hg
* Reported Sep 6 6:00 pm — Sep 21 6:00 pm, Vöcklabruck. Weather by CustomWeather, © 2019

Note: Actual official high and low records may vary slightly from our data, if they occured in-between our weather recording intervals... More about our weather records

Advertising

Vöcklabruck Weather History for the Previous 24 Hours

Scroll right to see more
 ConditionsComfort  
Time TempWeatherWind HumidityBarometerVisibility
6:00 pm
Sat, Sep 21
67 °FMild.7 mph45%30.06 "HgN/A
5:00 pm69 °FSunny.8 mph42%30.07 "Hg6 mi
4:00 pm69 °FMild.7 mph42%30.09 "HgN/A
3:00 pm68 °FMild.8 mph41%30.12 "HgN/A
2:00 pm66 °FMild.8 mph41%30.14 "HgN/A
1:00 pm64 °FMild.6 mph43%30.17 "HgN/A
12:00 pm60 °FRefreshingly cool.7 mph46%30.19 "HgN/A
11:00 am56 °FSunny.5 mph57%30.22 "Hg19 mi
10:00 am49 °FCool.2 mph68%30.25 "HgN/A
9:00 am44 °FQuite cool.2 mph75%30.27 "HgN/A
8:00 am40 °FSunny.1 mph84%30.29 "Hg25 mi
7:00 am38 °FSunny.1 mph86%30.29 "Hg25 mi
6:00 am39 °FChilly.1 mph85%30.30 "HgN/A
5:00 am40 °FChilly.1 mph86%30.32 "HgN/A
4:00 am41 °FQuite cool.1 mph84%30.32 "HgN/A
2:00 am43 °FQuite cool.2 mph79%30.34 "HgN/A
1:00 am44 °FQuite cool.No wind76%30.35 "HgN/A
12:00 am46 °FCool.1 mph73%30.36 "HgN/A
11:00 pm
Fri, Sep 20
46 °FCool.1 mph74%30.36 "HgN/A
10:00 pm50 °FCool.5 mph60%30.35 "HgN/A
9:00 pm51 °FCool.5 mph57%30.34 "HgN/A
8:00 pm53 °FPassing clouds.1 mph51%30.33 "Hg28 mi
Weather by CustomWeather, © 2019

See weather overview